COSMOS 2251 DEB, 34045

Orbit data source: Space-Track

COSMOS 2251 DEB, 34045 is space debris in LEO originally from a launch on Wed, 16 Jun 1993 UTC launched from the Plesetsk Missile And Space Complex (PKMTR). The debris from Iridium 33, an American commercial communications satellite, has been tracked extensively since its accidental collision with the defunct Russian satellite Cosmos 2251 in 2009. This event, occurring at high speed in low Earth orbit (LEO), generated thousands of pieces of space debris, significantly increasing the risk of further collisions. The Iridium 33 debris cloud has impacted space traffic management and orbital debris mitigation strategies, making it a subject of ongoing study in space situational awareness.

Loading next visibility...
Identifier
34045, 1993-036JG
Orbit
LEO
Country
Flag of CISCIS
Related business
Manufacturer
Unknown
Mission
Spacecraft
Bus & Motor
Unknown
Mass
Unknown
Launch date (UTC)
1993-06-16 (32 years ago)
Launch vehicle
Unknown
Launch site
Plesetsk Missile And Space Complex (PKMTR)
Object type
Payload
Rocket body
Debris
Shape & HBR
Unknown shape, 0.2 m
Radar Cross Section
Medium (>0.1 m² and <1 m²)

Expand to show TLE details & history
Last TLE update: 7 hours ago

TLE from 7 hours ago
0 COSMOS 2251 DEB
1 34045U 93036JG  25289.11659317  .00000451  00000-0  17015-3 0  9993
2 34045  74.0392  56.2612 0026018 158.1897 255.6250 14.34023757872076
Epoch: 2025-10-16T02:47Z
TLE epoch observation values (Epoch: 2025-10-16T02:47:53.649Z)
Latitude
50.74323°
Longitude
9.77837°
Altitude
790.761 km
Speed
7.461 km/s
True Right ascension
05h 06m 31s
True Declination
50° 34' 31"
Sunlit
Object was in full shadow at epoch
Visualization orbit readout
Latitude
Unknown
Longitude
Unknown
Altitude
Unknown
Speed
Unknown
Apparent Right ascension
Unknown
Apparent Declination
Unknown
Sunlit
N/A
Visualization observer readout
Local Sidereal Time
04:27:32
Azimuth
Unknown
Elevation
Unknown
Doppler factor
Unknown
Orbital elements
Apogee altitude
794.552 km
Perigee altitude
757.325 km
Semi-major axis
7,154.075 km
Eccentricity
0.0026
Inclination
74.0392°
RAAN
56.2612°
Arg. of periapsis
158.1897°
True anomaly
255.33642°
Mean anomaly
255.625°
Eccentric anomaly
255.48069°
Mean motion
3.58685 °/min
Orbital period
100.37 mins
BSTAR
0.00017015
Loading maneuver chart data...
Computing Atmospheric mass density...

Documentation

Showing up to 5 results
|